contact:dominique.lefevre@mio.osupytheas.fr, maurice.libes@osupytheas.fr, didier.mallarino@osupytheas.fr
Project:EMSO http://www.emso-fr.org/EMSO-France
Depth: 2436.0 m
Title:EMSO Ligure Ouest : Data MII capteur AQUADOPP
Date,Latitude,Longitude,X_East,Y_North,Z_Up,Amplitude_X,Amplitude_Y,Amplitude_Z,Batterie,SoundSpeed,Heading,Pitch,Roll,Pressure,TIS,Speed,Direction
, degrees North, degrees East, m.s-1, m.s-1,m.s-1, 1, 1, 1, Volt, m.s-1, degree, degree, degree, dbar, degree_C, m.s-1, degree
2019-09-13T00:09:04,42.805,6.029,-0.101,-0.026,-0.061,100.0,103.0,97.0,13.4,1505.2,325.5,-0.8,1.8,2470.201,13.29,0.104,255.6
2019-09-13T00:12:05,42.805,6.029,-0.021,-0.005,0.005,100.0,105.0,97.0,13.4,1505.3,326.2,-0.8,1.8,2470.2,13.31,0.021,256.6
2019-09-13T00:15:06,42.805,6.029,0.014,-0.015,0.042,99.0,104.0,97.0,13.4,1505.3,326.6,-0.7,1.8,2470.165,13.31,0.02,137.0
2019-09-13T00:18:08,42.805,6.029,-0.041,-0.031,-0.048,100.0,103.0,98.0,13.4,1505.3,324.0,-0.7,1.8,2470.17,13.32,0.051,232.9
2019-09-13T00:21:08,42.805,6.029,-0.053,-0.005,-0.023,101.0,103.0,98.0,13.3,1505.3,328.5,-0.7,1.8,2470.165,13.32,0.053,264.6
2019-09-13T00:24:09,42.805,6.029,-0.033,0.003,0.044,100.0,105.0,98.0,13.3,1505.3,328.6,-0.7,1.8,2470.215,13.33,0.033,275.2
2019-09-13T00:27:10,42.805,6.029,-0.047,-0.011,-0.014,100.0,104.0,98.0,13.3,1505.3,324.7,-0.7,1.8,2470.127,13.33,0.048,256.8
2019-09-13T00:30:11,42.805,6.029,-0.025,-0.01,-0.022,101.0,104.0,97.0,13.3,1505.3,324.1,-0.7,1.8,2470.171,13.33,0.026,248.2
2019-09-13T00:33:12,42.805,6.029,-0.069,0.023,0.0,99.0,104.0,97.0,13.4,1505.3,327.9,-0.7,1.9,2470.124,13.33,0.072,288.4
2019-09-13T00:36:13,42.805,6.029,-0.031,-0.007,0.027,100.0,103.0,99.0,13.4,1505.3,325.1,-0.7,1.8,2470.149,13.33,0.031,257.3
2019-09-13T00:39:14,42.805,6.029,0.0,0.009,0.071,102.0,105.0,98.0,13.4,1505.3,326.3,-0.7,1.8,2470.109,13.33,0.009,0.0
2019-09-13T00:42:15,42.805,6.029,0.007,-0.007,0.022,102.0,103.0,98.0,13.4,1505.3,328.0,-0.8,1.8,2470.126,13.33,0.009,135.0
2019-09-13T00:45:16,42.805,6.029,-0.025,0.01,-0.006,100.0,103.0,98.0,13.4,1505.3,325.8,-0.7,1.9,2470.115,13.33,0.026,291.8
2019-09-13T00:48:17,42.805,6.029,-0.068,-0.008,-0.012,100.0,104.0,98.0,13.4,1505.3,325.9,-0.7,1.8,2470.12,13.33,0.068,263.3
2019-09-13T00:51:18,42.805,6.029,-0.032,0.018,0.011,102.0,104.0,97.0,13.3,1505.3,323.5,-0.7,1.8,2470.075,13.33,0.036,299.4
2019-09-13T00:54:19,42.805,6.029,-0.011,0.022,0.003,99.0,103.0,99.0,13.4,1505.3,326.4,-0.7,1.8,2470.191,13.33,0.024,333.4
2019-09-13T00:57:20,42.805,6.029,-0.055,0.003,0.014,99.0,103.0,97.0,13.4,1505.3,325.3,-0.7,1.8,2470.1,13.33,0.055,273.1
2019-09-13T01:00:21,42.805,6.029,-0.022,-0.005,0.007,99.0,103.0,97.0,13.4,1505.3,325.0,-0.7,1.9,2470.102,13.33,0.022,257.2
2019-09-13T01:03:22,42.805,6.029,-0.017,-0.001,-0.057,100.0,103.0,97.0,13.4,1505.4,327.4,-0.7,1.8,2470.086,13.34,0.017,266.6
2019-09-13T01:06:23,42.805,6.029,-0.039,0.002,-0.02,99.0,103.0,97.0,13.3,1505.4,328.1,-0.7,1.8,2470.083,13.34,0.039,272.9
2019-09-13T01:09:24,42.805,6.029,-0.027,-0.007,0.018,101.0,104.0,97.0,13.3,1505.3,327.6,-0.7,1.9,2470.068,13.33,0.027,255.5
2019-09-13T01:12:25,42.805,6.029,-0.036,0.007,-0.011,99.0,103.0,97.0,13.4,1505.3,325.1,-0.7,1.8,2470.091,13.33,0.036,281.0
2019-09-13T01:15:26,42.805,6.029,-0.011,-0.01,-0.009,100.0,102.0,97.0,13.4,1505.3,323.2,-0.7,1.8,2470.107,13.33,0.014,227.7
2019-09-13T01:18:27,42.805,6.029,-0.01,-0.017,0.006,101.0,102.0,97.0,13.4,1505.3,323.8,-0.7,1.8,2470.045,13.33,0.019,210.5
2019-09-13T01:21:28,42.805,6.029,-0.027,0.004,-0.004,100.0,103.0,99.0,13.4,1505.3,324.2,-0.7,1.8,2470.122,13.33,0.027,278.4
2019-09-13T01:24:29,42.805,6.029,0.004,0.001,-0.011,101.0,105.0,97.0,13.4,1505.4,323.6,-0.7,1.8,2470.129,13.34,0.004,76.0
2019-09-13T01:27:30,42.805,6.029,-0.067,-0.003,-0.03,99.0,104.0,98.0,13.3,1505.4,323.7,-0.7,1.8,2470.072,13.34,0.067,267.4
2019-09-13T01:30:31,42.805,6.029,-0.022,-0.006,-0.006,100.0,104.0,98.0,13.4,1505.3,322.7,-0.7,1.8,2470.082,13.33,0.022,254.7
2019-09-13T01:33:32,42.805,6.029,-0.028,0.008,-0.023,100.0,103.0,97.0,13.4,1505.4,326.5,-0.7,1.8,2470.066,13.34,0.029,285.9
2019-09-13T01:36:33,42.805,6.029,-0.047,-0.003,-0.008,100.0,104.0,97.0,13.4,1505.4,328.3,-0.7,1.8,2470.067,13.34,0.047,266.4
2019-09-13T01:39:34,42.805,6.029,-0.061,0.017,-0.008,100.0,103.0,98.0,13.4,1505.4,326.8,-0.7,1.9,2470.054,13.34,0.063,285.6
2019-09-13T01:42:35,42.805,6.029,-0.031,-0.028,-0.018,100.0,103.0,98.0,13.3,1505.4,325.5,-0.7,1.8,2470.072,13.34,0.041,227.9
2019-09-13T01:45:36,42.805,6.029,-0.027,-0.013,0.002,99.0,103.0,98.0,13.4,1505.4,324.7,-0.7,1.8,2470.093,13.34,0.029,244.3
2019-09-13T01:48:37,42.805,6.029,-0.021,-0.012,-0.035,99.0,104.0,97.0,13.3,1505.4,325.4,-0.7,1.9,2470.134,13.34,0.024,240.3
2019-09-13T01:51:38,42.805,6.029,-0.031,-0.008,-0.003,100.0,104.0,98.0,13.3,1505.4,326.4,-0.7,1.9,2470.067,13.34,0.032,255.5
2019-09-13T01:54:39,42.805,6.029,-0.024,-0.009,-0.012,100.0,105.0,97.0,13.4,1505.4,324.1,-0.7,1.9,2470.06,13.34,0.025,249.4
2019-09-13T01:57:40,42.805,6.029,-0.029,0.01,0.0,98.0,104.0,98.0,13.4,1505.4,327.8,-0.7,1.8,2470.119,13.34,0.03,289.0
2019-09-13T02:00:41,42.805,6.029,-0.041,-0.006,-0.031,100.0,104.0,97.0,13.4,1505.4,325.7,-0.7,1.9,2470.057,13.34,0.041,261.7
2019-09-13T02:03:42,42.805,6.029,0.004,0.004,-0.001,100.0,104.0,97.0,13.4,1505.4,324.0,-0.7,1.8,2470.075,13.34,0.005,45.0
2019-09-13T02:06:43,42.805,6.029,-0.005,-0.006,-0.015,99.0,105.0,98.0,13.3,1505.4,326.0,-0.7,1.8,2470.054,13.34,0.007,219.8
2019-09-13T02:09:44,42.805,6.029,-0.03,-0.017,-0.05,100.0,104.0,98.0,13.3,1505.4,326.4,-0.7,1.9,2470.106,13.34,0.034,240.5
2019-09-13T02:12:45,42.805,6.029,-0.018,-0.014,-0.012,99.0,103.0,97.0,13.4,1505.4,323.5,-0.7,1.8,2470.102,13.34,0.022,232.1
2019-09-13T02:15:46,42.805,6.029,-0.004,-0.001,0.012,99.0,104.0,98.0,13.3,1505.3,328.2,-0.7,1.8,2470.075,13.33,0.004,256.0
2019-09-13T02:18:47,42.805,6.029,-0.034,-0.02,0.008,99.0,104.0,98.0,13.4,1505.4,327.3,-0.7,1.8,2470.099,13.34,0.039,239.5
2019-09-13T02:21:48,42.805,6.029,0.006,-0.004,0.035,100.0,104.0,98.0,13.4,1505.3,328.6,-0.7,1.8,2470.089,13.33,0.007,123.7
2019-09-13T02:24:49,42.805,6.029,-0.013,-0.004,0.022,100.0,103.0,98.0,13.4,1505.4,326.7,-0.7,1.8,2470.083,13.34,0.013,252.9
2019-09-13T02:27:50,42.805,6.029,-0.009,0.003,0.016,98.0,105.0,99.0,13.4,1505.4,324.6,-0.7,1.8,2470.137,13.34,0.009,288.4
2019-09-13T02:30:51,42.805,6.029,-0.02,0.0,-0.001,100.0,104.0,97.0,13.4,1505.3,324.3,-0.7,1.8,2470.094,13.33,0.02,270.0
2019-09-13T02:33:52,42.805,6.029,-0.044,-0.005,-0.029,99.0,105.0,99.0,13.4,1505.3,325.8,-0.7,1.8,2470.081,13.33,0.044,263.5
2019-09-13T02:36:53,42.805,6.029,-0.049,-0.036,-0.037,100.0,103.0,98.0,13.4,1505.3,324.5,-0.7,1.8,2470.06,13.33,0.06,233.7
2019-09-13T02:39:54,42.805,6.029,-0.054,0.0,-0.02,100.0,105.0,97.0,13.3,1505.3,328.0,-0.7,1.8,2470.109,13.33,0.053,270.0
2019-09-13T02:42:55,42.805,6.029,-0.014,0.0,0.004,99.0,104.0,99.0,13.4,1505.3,327.0,-0.7,1.8,2470.05,13.33,0.014,270.0
2019-09-13T02:45:56,42.805,6.029,-0.041,-0.008,-0.039,100.0,104.0,98.0,13.4,1505.3,327.3,-0.7,1.8,2470.117,13.33,0.041,259.0
2019-09-13T02:48:57,42.805,6.029,-0.004,-0.003,-0.008,100.0,104.0,98.0,13.4,1505.3,326.4,-0.7,1.8,2470.064,13.33,0.005,233.1
2019-09-13T02:51:58,42.805,6.029,-0.015,0.0,0.016,99.0,105.0,97.0,13.3,1505.3,325.7,-0.7,1.8,2470.11,13.33,0.015,270.0
2019-09-13T02:54:59,42.805,6.029,-0.006,0.001,0.0,99.0,106.0,98.0,13.4,1505.3,323.0,-0.7,1.8,2470.111,13.33,0.006,279.5
2019-09-13T02:58:00,42.805,6.029,-0.033,-0.01,0.015,100.0,105.0,97.0,13.3,1505.3,324.4,-0.7,1.8,2470.166,13.33,0.034,253.1
2019-09-13T03:01:01,42.805,6.029,-0.023,-0.004,-0.029,101.0,104.0,98.0,13.3,1505.3,327.4,-0.7,1.9,2470.086,13.33,0.023,260.1
2019-09-13T03:04:02,42.805,6.029,-0.008,0.009,0.026,101.0,105.0,98.0,13.4,1505.4,326.7,-0.7,1.8,2470.078,13.34,0.012,318.4
2019-09-13T03:07:03,42.805,6.029,-0.019,-0.004,0.021,100.0,105.0,97.0,13.4,1505.4,328.2,-0.8,1.8,2470.079,13.34,0.019,258.1
2019-09-13T03:10:04,42.805,6.029,-0.043,0.002,-0.006,98.0,104.0,97.0,13.4,1505.4,327.8,-0.7,1.8,2470.078,13.34,0.043,272.7
2019-09-13T03:13:05,42.805,6.029,-0.029,-0.007,-0.024,99.0,104.0,98.0,13.4,1505.4,328.1,-0.7,1.8,2470.105,13.34,0.029,256.4
2019-09-13T03:16:06,42.805,6.029,-0.019,-0.014,0.002,100.0,104.0,97.0,13.3,1505.4,326.0,-0.8,1.9,2470.084,13.34,0.023,233.6
2019-09-13T03:19:07,42.805,6.029,-0.016,-0.007,-0.001,99.0,105.0,98.0,13.4,1505.4,326.1,-0.7,1.8,2470.119,13.34,0.017,246.4
2019-09-13T03:22:08,42.805,6.029,-0.028,0.003,0.007,100.0,104.0,97.0,13.4,1505.4,326.1,-0.7,1.9,2470.087,13.34,0.028,276.1
2019-09-13T03:25:09,42.805,6.029,-0.033,-0.025,-0.017,99.0,103.0,98.0,13.4,1505.4,324.3,-0.7,1.8,2470.098,13.34,0.041,232.9
2019-09-13T03:28:10,42.805,6.029,-0.008,0.005,0.011,101.0,103.0,97.0,13.4,1505.4,324.3,-0.7,1.8,2470.12,13.34,0.009,302.0
2019-09-13T03:31:11,42.805,6.029,-0.029,-0.011,0.003,100.0,104.0,98.0,13.4,1505.4,326.3,-0.7,1.8,2470.102,13.34,0.031,249.2
2019-09-13T03:34:12,42.805,6.029,-0.011,-0.003,-0.013,101.0,105.0,97.0,13.4,1505.4,326.2,-0.7,1.8,2470.135,13.34,0.011,254.7
2019-09-13T03:37:13,42.805,6.029,0.006,0.011,0.055,99.0,105.0,98.0,13.3,1505.4,323.4,-0.8,1.8,2470.098,13.34,0.012,28.6
2019-09-13T03:40:14,42.805,6.029,-0.007,-0.008,-0.012,100.0,104.0,98.0,13.4,1505.4,328.4,-0.7,1.8,2470.111,13.34,0.01,221.2
2019-09-13T03:43:15,42.805,6.029,-0.006,0.0,-0.002,100.0,104.0,98.0,13.4,1505.4,325.4,-0.7,1.9,2470.114,13.34,0.006,270.0
2019-09-13T03:46:16,42.805,6.029,-0.009,0.006,0.034,99.0,105.0,97.0,13.3,1505.4,325.6,-0.6,1.8,2470.149,13.34,0.01,303.7
2019-09-13T03:49:17,42.805,6.029,-0.025,-0.019,0.005,99.0,105.0,97.0,13.3,1505.4,326.0,-0.7,1.8,2470.118,13.34,0.031,232.8
2019-09-13T03:52:18,42.805,6.029,-0.047,-0.006,-0.025,100.0,104.0,97.0,13.3,1505.4,326.0,-0.7,1.9,2470.152,13.34,0.047,262.7
2019-09-13T03:55:19,42.805,6.029,-0.043,0.002,-0.008,99.0,104.0,96.0,13.4,1505.4,324.5,-0.7,1.8,2470.101,13.34,0.043,272.7
2019-09-13T03:58:20,42.805,6.029,-0.029,0.007,-0.025,99.0,106.0,97.0,13.3,1505.4,327.8,-0.7,1.8,2470.123,13.34,0.029,283.6
2019-09-13T04:01:21,42.805,6.029,-0.024,-0.006,-0.043,99.0,105.0,97.0,13.4,1505.4,325.1,-0.7,1.9,2470.158,13.34,0.024,256.0
2019-09-13T04:04:22,42.805,6.029,-0.024,-0.018,-0.005,99.0,104.0,97.0,13.3,1505.4,325.1,-0.7,1.8,2470.136,13.34,0.03,233.1
2019-09-13T04:07:23,42.805,6.029,-0.032,0.002,-0.012,99.0,104.0,97.0,13.4,1505.4,327.1,-0.7,1.9,2470.144,13.34,0.032,273.6
2019-09-13T04:10:24,42.805,6.029,0.017,-0.021,0.0,98.0,104.0,97.0,13.3,1505.4,324.4,-0.7,1.8,2470.146,13.34,0.027,141.0
2019-09-13T04:13:25,42.805,6.029,-0.007,-0.026,0.005,101.0,103.0,98.0,13.3,1505.4,325.6,-0.7,1.8,2470.153,13.34,0.026,195.1
2019-09-13T04:16:26,42.805,6.029,-0.026,-0.013,-0.02,103.0,105.0,97.0,13.3,1505.4,325.5,-0.7,1.8,2470.13,13.34,0.029,243.4
2019-09-13T04:19:27,42.805,6.029,-0.11,-0.008,-0.094,99.0,103.0,97.0,13.4,1505.4,326.3,-0.7,1.8,2470.139,13.34,0.11,265.8
2019-09-13T04:22:28,42.805,6.029,-0.072,-0.011,-0.039,98.0,103.0,97.0,13.4,1505.4,324.3,-0.7,1.8,2470.134,13.34,0.072,261.3
2019-09-13T04:25:29,42.805,6.029,-0.066,-0.024,-0.051,99.0,102.0,97.0,13.4,1505.4,324.2,-0.7,1.8,2470.125,13.34,0.07,250.0
2019-09-13T04:28:30,42.805,6.029,-0.039,-0.01,-0.01,98.0,101.0,98.0,13.4,1505.4,325.9,-0.7,1.8,2470.173,13.34,0.04,255.6
2019-09-13T04:31:31,42.805,6.029,-0.048,-0.004,-0.049,98.0,103.0,96.0,13.3,1505.4,324.5,-0.7,1.8,2470.157,13.34,0.048,265.2
2019-09-13T04:34:32,42.805,6.029,-0.016,0.0,-0.017,100.0,103.0,97.0,13.4,1505.4,325.3,-0.7,1.8,2470.159,13.34,0.016,270.0
2019-09-13T04:37:33,42.805,6.029,-0.04,-0.016,-0.046,98.0,102.0,97.0,13.3,1505.4,327.3,-0.7,1.8,2470.178,13.34,0.043,248.2
2019-09-13T04:40:34,42.805,6.029,-0.001,0.0,0.001,100.0,103.0,98.0,13.4,1505.4,328.2,-0.7,1.8,2470.144,13.35,0.001,270.0
2019-09-13T04:43:35,42.805,6.029,-0.013,0.02,0.01,100.0,102.0,97.0,13.4,1505.4,325.7,-0.7,1.9,2470.183,13.35,0.023,327.0
2019-09-13T04:46:36,42.805,6.029,-0.057,-0.01,-0.036,100.0,102.0,97.0,13.3,1505.4,324.6,-0.7,1.8,2470.157,13.35,0.057,260.1
2019-09-13T04:49:37,42.805,6.029,-0.048,-0.041,-0.023,101.0,103.0,97.0,13.4,1505.4,325.6,-0.7,1.8,2470.164,13.35,0.063,229.5
2019-09-13T04:52:38,42.805,6.029,-0.065,-0.031,-0.052,99.0,102.0,97.0,13.4,1505.4,325.6,-0.7,1.8,2470.193,13.35,0.072,244.5
2019-09-13T04:55:39,42.805,6.029,-0.037,-0.003,-0.02,99.0,102.0,96.0,13.4,1505.4,323.3,-0.7,1.8,2470.195,13.35,0.037,265.4
2019-09-13T04:58:40,42.805,6.029,-0.044,0.0,-0.02,98.0,103.0,97.0,13.4,1505.4,328.6,-0.7,1.8,2470.174,13.35,0.044,270.0
2019-09-13T05:01:41,42.805,6.029,-0.062,-0.004,-0.074,99.0,103.0,97.0,13.4,1505.4,324.4,-0.7,1.8,2470.199,13.35,0.062,266.3
2019-09-13T05:04:42,42.805,6.029,-0.06,-0.01,-0.008,98.0,102.0,99.0,13.3,1505.4,324.6,-0.7,1.8,2470.2,13.35,0.06,260.5
2019-09-13T05:07:43,42.805,6.029,-0.041,0.006,-0.006,99.0,103.0,97.0,13.4,1505.4,328.2,-0.7,1.8,2470.171,13.34,0.041,278.3
2019-09-13T05:10:44,42.805,6.029,-0.025,-0.012,-0.031,99.0,107.0,98.0,13.3,1505.4,327.3,-0.7,1.8,2470.149,13.34,0.027,244.4
2019-09-13T05:13:45,42.805,6.029,-0.017,-0.028,-0.029,100.0,103.0,96.0,13.4,1505.4,327.7,-0.7,1.8,2470.165,13.34,0.032,211.3
2019-09-13T05:16:46,42.805,6.029,-0.012,-0.018,0.007,98.0,103.0,97.0,13.4,1505.4,327.3,-0.7,1.8,2470.213,13.34,0.021,213.7
2019-09-13T05:19:47,42.805,6.029,-0.028,-0.018,-0.033,99.0,102.0,98.0,13.3,1505.4,328.2,-0.7,1.8,2470.196,13.34,0.033,237.3
2019-09-13T05:22:48,42.805,6.029,-0.064,0.007,-0.047,100.0,103.0,97.0,13.4,1505.4,323.4,-0.7,1.8,2470.189,13.34,0.064,276.2
2019-09-13T05:25:49,42.805,6.029,-0.067,-0.007,-0.054,99.0,104.0,97.0,13.4,1505.4,325.5,-0.7,1.8,2470.234,13.34,0.067,264.0
2019-09-13T05:28:50,42.805,6.029,-0.114,-0.024,-0.089,100.0,102.0,97.0,13.4,1505.4,324.7,-0.7,1.8,2470.174,13.34,0.116,258.1
2019-09-13T05:31:51,42.805,6.029,-0.086,-0.015,-0.089,102.0,103.0,97.0,13.3,1505.4,323.7,-0.7,1.8,2470.207,13.34,0.087,260.1
2019-09-13T05:34:52,42.805,6.029,-0.076,-0.03,-0.097,101.0,102.0,97.0,13.4,1505.4,324.9,-0.7,1.8,2470.178,13.34,0.081,248.5
2019-09-13T05:37:53,42.805,6.029,-0.065,-0.01,-0.061,99.0,103.0,98.0,13.4,1505.4,326.6,-0.7,1.8,2470.16,13.34,0.065,261.3
2019-09-13T05:40:54,42.805,6.029,-0.08,-0.02,-0.088,100.0,103.0,97.0,13.3,1505.4,323.2,-0.7,1.8,2470.216,13.34,0.082,256.0
2019-09-13T05:43:55,42.805,6.029,-0.096,-0.012,-0.069,99.0,102.0,98.0,13.3,1505.4,326.5,-0.7,1.8,2470.151,13.34,0.096,262.9
2019-09-13T05:46:56,42.805,6.029,-0.034,-0.001,-0.02,98.0,103.0,97.0,13.4,1505.4,323.7,-0.7,1.8,2470.155,13.35,0.034,268.3
2019-09-13T05:49:57,42.805,6.029,-0.055,-0.014,-0.043,99.0,103.0,98.0,13.4,1505.4,326.1,-0.7,1.9,2470.26,13.35,0.056,255.7
2019-09-13T05:52:58,42.805,6.029,-0.082,0.0,-0.065,100.0,103.0,97.0,13.4,1505.4,324.4,-0.7,1.8,2470.182,13.35,0.081,270.0
2019-09-13T05:55:59,42.805,6.029,-0.093,-0.025,-0.067,99.0,103.0,97.0,13.4,1505.4,328.4,-0.7,1.8,2470.2,13.35,0.096,255.0
2019-09-13T05:59:00,42.805,6.029,-0.059,-0.022,-0.062,99.0,102.0,97.0,13.4,1505.4,326.0,-0.7,1.8,2470.173,13.35,0.062,249.6
2019-09-13T06:02:01,42.805,6.029,-0.115,-0.016,-0.065,100.0,102.0,97.0,13.4,1505.4,323.0,-0.7,1.8,2470.181,13.35,0.116,262.1
2019-09-13T06:05:02,42.805,6.029,-0.079,-0.035,-0.054,99.0,103.0,97.0,13.3,1505.4,327.7,-0.7,1.9,2470.206,13.35,0.086,246.1
2019-09-13T06:08:03,42.805,6.029,-0.081,-0.015,-0.049,98.0,101.0,98.0,13.3,1505.4,325.1,-0.7,1.8,2470.206,13.35,0.082,259.5
2019-09-13T06:11:04,42.805,6.029,-0.011,-0.01,-0.022,98.0,103.0,98.0,13.4,1505.4,326.5,-0.7,1.9,2470.202,13.35,0.014,227.7
2019-09-13T06:14:05,42.805,6.029,-0.009,-0.02,0.019,99.0,104.0,97.0,13.4,1505.4,325.8,-0.7,1.9,2470.202,13.35,0.021,204.2
2019-09-13T06:17:06,42.805,6.029,-0.034,-0.019,-0.04,100.0,104.0,96.0,13.3,1505.4,327.2,-0.7,1.8,2470.171,13.34,0.038,240.8
2019-09-13T06:20:07,42.805,6.029,-0.002,-0.036,-0.015,99.0,104.0,99.0,13.4,1505.4,324.6,-0.7,1.8,2470.185,13.34,0.036,183.2
2019-09-13T06:23:08,42.805,6.029,-0.012,-0.016,-0.009,99.0,104.0,97.0,13.4,1505.4,324.2,-0.7,1.8,2470.198,13.34,0.02,216.9
2019-09-13T06:26:09,42.805,6.029,-0.023,-0.016,0.01,100.0,103.0,96.0,13.4,1505.4,324.6,-0.7,1.8,2470.224,13.34,0.028,235.2
2019-09-13T06:29:10,42.805,6.029,-0.01,-0.031,-0.028,99.0,103.0,97.0,13.4,1505.3,326.4,-0.7,1.8,2470.183,13.33,0.032,197.9
2019-09-13T06:32:11,42.805,6.029,0.009,-0.003,-0.012,99.0,103.0,97.0,13.3,1505.3,324.1,-0.7,1.9,2470.197,13.33,0.009,108.4
2019-09-13T06:35:12,42.805,6.029,-0.006,-0.021,-0.022,99.0,103.0,97.0,13.3,1505.3,323.2,-0.7,1.8,2470.168,13.33,0.021,195.9
2019-09-13T06:38:13,42.805,6.029,0.008,-0.017,0.026,97.0,105.0,98.0,13.3,1505.3,324.0,-0.7,1.8,2470.26,13.33,0.018,154.8
2019-09-13T06:41:14,42.805,6.029,-0.028,-0.041,-0.019,99.0,103.0,100.0,13.4,1505.3,323.6,-0.7,1.8,2470.193,13.33,0.049,214.3
2019-09-13T06:44:15,42.805,6.029,-0.017,-0.019,0.01,102.0,102.0,96.0,13.4,1505.3,325.0,-0.7,1.8,2470.199,13.33,0.025,221.8
2019-09-13T06:47:16,42.805,6.029,-0.012,-0.019,-0.018,99.0,104.0,98.0,13.3,1505.3,328.4,-0.7,1.8,2470.19,13.33,0.022,212.3
2019-09-13T06:50:17,42.805,6.029,-0.032,-0.03,-0.036,100.0,104.0,97.0,13.4,1505.3,326.3,-0.7,1.8,2470.207,13.33,0.043,226.9
2019-09-13T06:53:18,42.805,6.029,-0.06,-0.017,-0.067,100.0,103.0,98.0,13.4,1505.3,324.7,-0.7,1.8,2470.176,13.33,0.062,254.2
2019-09-13T06:56:19,42.805,6.029,-0.031,-0.023,-0.013,99.0,103.0,98.0,13.4,1505.3,326.2,-0.7,1.8,2470.183,13.33,0.038,233.4
2019-09-13T06:59:20,42.805,6.029,-0.023,-0.033,-0.03,98.0,105.0,96.0,13.3,1505.3,324.1,-0.7,1.8,2470.218,13.33,0.04,214.9
2019-09-13T07:02:21,42.805,6.029,-0.042,-0.029,-0.051,100.0,103.0,97.0,13.4,1505.3,322.8,-0.7,1.9,2470.2,13.33,0.051,235.4
2019-09-13T07:05:22,42.805,6.029,-0.077,-0.03,-0.062,101.0,104.0,96.0,13.4,1505.3,323.5,-0.7,1.8,2470.162,13.33,0.082,248.7
2019-09-13T07:08:23,42.805,6.029,-0.079,-0.028,-0.067,100.0,105.0,97.0,13.4,1505.3,323.5,-0.8,1.8,2470.229,13.33,0.083,250.5
2019-09-13T07:11:24,42.805,6.029,-0.065,-0.023,-0.098,98.0,103.0,98.0,13.4,1505.3,323.7,-0.7,1.8,2470.187,13.33,0.068,250.5
2019-09-13T07:14:25,42.805,6.029,-0.1,-0.019,-0.065,100.0,104.0,97.0,13.3,1505.3,326.6,-0.8,1.8,2470.191,13.33,0.101,259.2
2019-09-13T07:17:26,42.805,6.029,-0.079,-0.028,-0.101,99.0,104.0,98.0,13.3,1505.3,324.1,-0.7,1.8,2470.22,13.33,0.083,250.5
2019-09-13T07:20:27,42.805,6.029,-0.074,-0.017,-0.059,100.0,105.0,96.0,13.4,1505.3,327.3,-0.7,1.8,2470.195,13.33,0.075,257.1
2019-09-13T07:23:28,42.805,6.029,-0.004,-0.02,0.021,97.0,104.0,98.0,13.3,1505.3,327.1,-0.7,1.8,2470.179,13.33,0.02,191.3
2019-09-13T07:26:29,42.805,6.029,0.036,-0.035,0.042,99.0,104.0,97.0,13.4,1505.3,327.8,-0.7,1.8,2470.185,13.33,0.05,134.2
2019-09-13T07:29:30,42.805,6.029,0.034,-0.025,0.027,98.0,104.0,97.0,13.4,1505.3,327.9,-0.7,1.9,2470.224,13.33,0.042,126.3
2019-09-13T07:32:31,42.805,6.029,-0.015,-0.007,0.017,98.0,104.0,97.0,13.3,1505.3,328.3,-0.7,1.8,2470.194,13.33,0.016,245.0
2019-09-13T07:35:32,42.805,6.029,-0.027,-0.031,0.002,99.0,103.0,98.0,13.4,1505.3,325.0,-0.7,1.8,2470.217,13.33,0.041,221.1
2019-09-13T07:38:33,42.805,6.029,-0.011,-0.031,-0.042,99.0,102.0,99.0,13.4,1505.3,325.3,-0.7,1.9,2470.222,13.33,0.032,199.5
2019-09-13T07:41:34,42.805,6.029,-0.029,-0.022,-0.021,100.0,103.0,96.0,13.4,1505.3,325.1,-0.7,1.8,2470.205,13.33,0.036,232.8
2019-09-13T07:44:35,42.805,6.029,-0.025,-0.027,-0.023,100.0,103.0,96.0,13.4,1505.3,325.8,-0.7,1.8,2470.203,13.33,0.036,222.8
2019-09-13T07:47:36,42.805,6.029,-0.037,-0.037,-0.044,101.0,103.0,97.0,13.3,1505.3,326.5,-0.8,1.9,2470.156,13.33,0.052,225.0
2019-09-13T07:50:37,42.805,6.029,-0.065,-0.045,-0.064,99.0,102.0,97.0,13.4,1505.3,323.4,-0.7,1.8,2470.154,13.33,0.079,235.3
2019-09-13T07:53:38,42.805,6.029,-0.002,-0.029,-0.034,98.0,101.0,97.0,13.4,1505.3,328.1,-0.7,1.8,2470.188,13.33,0.029,183.9
2019-09-13T07:56:39,42.805,6.029,-0.02,-0.024,-0.026,99.0,102.0,97.0,13.4,1505.3,326.6,-0.7,1.8,2470.198,13.33,0.031,219.8
2019-09-13T07:59:40,42.805,6.029,0.0,-0.025,0.012,98.0,103.0,97.0,13.4,1505.3,323.7,-0.7,1.9,2470.183,13.33,0.025,180.0
2019-09-13T08:02:41,42.805,6.029,-0.008,-0.029,-0.011,99.0,103.0,97.0,13.3,1505.3,325.4,-0.7,1.8,2470.177,13.33,0.03,195.4
2019-09-13T08:05:42,42.805,6.029,-0.051,-0.028,-0.015,99.0,103.0,97.0,13.4,1505.3,327.4,-0.7,1.8,2470.21,13.33,0.058,241.2
2019-09-13T08:08:43,42.805,6.029,-0.034,-0.031,-0.055,100.0,102.0,97.0,13.4,1505.3,327.6,-0.7,1.8,2470.229,13.33,0.046,227.6
2019-09-13T08:11:44,42.805,6.029,0.014,-0.038,0.013,100.0,103.0,97.0,13.3,1505.3,324.1,-0.8,1.8,2470.236,13.33,0.04,159.8
2019-09-13T08:14:45,42.805,6.029,0.005,-0.031,0.022,99.0,102.0,97.0,13.4,1505.3,326.9,-0.7,1.8,2470.149,13.33,0.031,170.8
2019-09-13T08:17:46,42.805,6.029,0.007,-0.028,-0.005,101.0,102.0,97.0,13.3,1505.3,326.3,-0.7,1.8,2470.165,13.33,0.028,166.0
2019-09-13T08:20:47,42.805,6.029,0.028,-0.013,0.028,99.0,102.0,96.0,13.4,1505.3,328.0,-0.7,1.8,2470.186,13.33,0.03,114.9
2019-09-13T08:23:48,42.805,6.029,0.006,-0.028,0.009,98.0,104.0,97.0,13.4,1505.3,323.6,-0.7,1.8,2470.234,13.33,0.028,167.9
2019-09-13T08:26:49,42.805,6.029,0.005,-0.024,-0.009,98.0,103.0,97.0,13.3,1505.3,326.6,-0.7,1.8,2470.189,13.33,0.024,168.2
2019-09-13T08:29:50,42.805,6.029,-0.033,-0.009,-0.035,98.0,103.0,97.0,13.4,1505.3,324.1,-0.7,1.8,2470.176,13.33,0.034,254.7
2019-09-13T08:32:51,42.805,6.029,-0.026,-0.029,-0.035,99.0,103.0,96.0,13.4,1505.3,323.2,-0.7,1.9,2470.163,13.33,0.038,221.9
2019-09-13T08:35:52,42.805,6.029,-0.044,-0.038,-0.037,98.0,103.0,98.0,13.3,1505.3,324.7,-0.7,1.9,2470.197,13.33,0.058,229.2
2019-09-13T08:38:53,42.805,6.029,-0.046,-0.024,-0.04,99.0,102.0,97.0,13.4,1505.3,322.8,-0.7,1.8,2470.177,13.33,0.051,242.4
2019-09-13T08:41:54,42.805,6.029,-0.045,-0.032,-0.021,101.0,102.0,98.0,13.4,1505.3,327.0,-0.7,1.8,2470.178,13.33,0.055,234.6
2019-09-13T08:44:55,42.805,6.029,0.001,-0.018,0.003,101.0,102.0,97.0,13.4,1505.3,323.0,-0.8,1.8,2470.17,13.33,0.018,176.8
2019-09-13T08:47:56,42.805,6.029,-0.021,-0.022,-0.058,100.0,102.0,97.0,13.3,1505.3,326.5,-0.7,1.8,2470.178,13.33,0.03,223.7
2019-09-13T08:50:57,42.805,6.029,-0.009,-0.045,-0.014,99.0,102.0,97.0,13.4,1505.3,327.9,-0.7,1.8,2470.166,13.33,0.045,191.3
2019-09-13T08:53:58,42.805,6.029,0.0,-0.031,0.0,101.0,101.0,96.0,13.3,1505.3,327.8,-0.7,1.8,2470.156,13.33,0.03,180.0
2019-09-13T08:56:59,42.805,6.029,0.026,-0.034,0.0,99.0,101.0,97.0,13.3,1505.3,327.4,-0.7,1.9,2470.178,13.33,0.042,142.6
2019-09-13T09:00:00,42.805,6.029,0.001,-0.04,-0.036,98.0,102.0,97.0,13.3,1505.3,325.1,-0.7,1.9,2470.174,13.33,0.04,178.6
2019-09-13T09:03:01,42.805,6.029,0.019,-0.042,-0.003,98.0,103.0,97.0,13.3,1505.3,325.7,-0.7,1.8,2470.154,13.33,0.046,155.7
2019-09-13T09:06:02,42.805,6.029,0.038,-0.009,0.05,98.0,101.0,97.0,13.3,1505.3,323.1,-0.7,1.8,2470.142,13.33,0.039,103.3
2019-09-13T09:09:03,42.805,6.029,0.022,-0.037,0.032,98.0,103.0,98.0,13.4,1505.3,327.8,-0.8,1.9,2470.203,13.33,0.043,149.3
2019-09-13T09:12:04,42.805,6.029,-0.017,-0.033,-0.062,99.0,103.0,97.0,13.4,1505.3,325.1,-0.7,1.8,2470.148,13.33,0.037,207.3
2019-09-13T09:15:05,42.805,6.029,-0.088,-0.019,-0.078,100.0,102.0,97.0,13.3,1505.3,323.2,-0.8,1.8,2470.16,13.33,0.09,257.8
2019-09-13T09:18:06,42.805,6.029,-0.013,-0.04,-0.064,99.0,103.0,97.0,13.4,1505.3,327.9,-0.7,1.8,2470.139,13.33,0.042,198.0
2019-09-13T09:21:07,42.805,6.029,-0.012,-0.042,-0.016,98.0,103.0,97.0,13.3,1505.3,325.9,-0.7,1.8,2470.154,13.33,0.043,195.9
2019-09-13T09:24:08,42.805,6.029,-0.05,-0.037,-0.04,100.0,103.0,98.0,13.4,1505.3,326.4,-0.8,1.8,2470.144,13.33,0.062,233.5
2019-09-13T09:27:09,42.805,6.029,-0.031,-0.03,-0.044,101.0,102.0,96.0,13.3,1505.3,323.4,-0.7,1.8,2470.121,13.33,0.043,225.9
2019-09-13T09:30:10,42.805,6.029,-0.063,-0.019,-0.05,100.0,102.0,97.0,13.4,1505.3,324.1,-0.7,1.8,2470.134,13.33,0.065,253.2
2019-09-13T09:33:11,42.805,6.029,-0.052,-0.014,-0.055,99.0,102.0,97.0,13.4,1505.3,325.7,-0.7,1.8,2470.167,13.33,0.053,254.9
2019-09-13T09:36:12,42.805,6.029,-0.087,-0.04,-0.066,99.0,102.0,97.0,13.4,1505.3,327.6,-0.7,1.8,2470.183,13.33,0.095,245.3
2019-09-13T09:39:13,42.805,6.029,-0.031,-0.032,-0.019,99.0,104.0,97.0,13.4,1505.3,323.7,-0.7,1.9,2470.171,13.33,0.044,224.1